Waarnemingen

Advertentie
Mijn weer
Capo Caccia, Italië (16522): temperatuur & dauwpunt: 15.05.2018 19:00:00 - 21.05.2018 19:00:00 (CEST)Capo Caccia, Italië (16522): windsnelheid: 15.05.2018 19:00:00 - 21.05.2018 19:00:00 (CEST)Capo Caccia, Italië (16522): windrichting: 15.05.2018 19:00:00 - 21.05.2018 19:00:00 (CEST)Capo Caccia, Italië (16522): luchtdruk: 15.05.2018 19:00:00 - 21.05.2018 19:00:00 (CEST)Capo Caccia, Italië (16522): zicht: 15.05.2018 19:00:00 - 21.05.2018 19:00:00 (CEST)Capo Caccia, Italië (16522): Zonneschijnduur: 15.05.2018 19:00:00 - 21.05.2018 19:00:00 (CEST)
Datum & Tijd tt [°C] td [°C] ff [km/u] ff [kn] dd ppp [hPa] vv [km] sd [min]
21.05.2018 19:00:00 - - - - - - - -
21.05.2018 18:00:00 16,8 16,0 9 5 Z 1011,9 15 0
21.05.2018 17:00:00 17,0 15,5 9 5 Z 1011,9 10 0
21.05.2018 16:00:00 17,4 15,7 5 3 ZZO 1011,9 15 0
21.05.2018 15:00:00 17,0 15,7 5 3 OZO 1012,4 15 0
21.05.2018 14:00:00 15,0 14,7 9 5 ZZO 1012,6 0,4 0
21.05.2018 13:00:00 15,0 14,7 4 2 Z 1013,1 0,4 0
21.05.2018 12:00:00 15,6 14,8 8 4 Z 1013,0 12 0
21.05.2018 11:00:00 16,6 15,8 9 5 Z 1013,0 15 0
21.05.2018 10:00:00 17,0 15,7 5 3 ZO 1012,9 20 0
21.05.2018 09:00:00 16,8 15,5 0 0 N 1012,9 20 0
21.05.2018 08:00:00 16,8 15,7 0 0 N 1012,5 20 0
21.05.2018 07:00:00 16,0 14,7 0 0 N 1012,6 20 0
21.05.2018 06:00:00 16,0 14,7 5 3 N 1012,9 15 -
21.05.2018 05:00:00 16,6 15,3 8 4 WNW 1012,7 10 -
21.05.2018 04:00:00 16,6 15,6 5 3 WNW 1013,0 10 -
21.05.2018 03:00:00 16,0 14,5 9 5 O 1013,2 15 -
21.05.2018 02:00:00 16,8 15,5 8 4 ONO 1013,1 15 -
21.05.2018 01:00:00 17,0 15,7 9 5 ONO 1013,3 15 -
21.05.2018 00:00:00 17,4 16,8 5 3 ZZW 1013,3 10 -
20.05.2018 23:00:00 17,8 17,0 8 4 ONO 1013,2 10 -
20.05.2018 22:00:00 18,0 17,2 11 6 OZO 1012,9 15 -
20.05.2018 21:00:00 18,0 16,9 9 5 O 1012,8 15 0
20.05.2018 20:00:00 20,0 15,7 8 4 N 1012,3 20 0
20.05.2018 19:00:00 20,0 14,4 13 7 NO 1012,4 20 0
20.05.2018 18:00:00 21,6 13,5 5 3 NO 1012,7 20 0
20.05.2018 17:00:00 22,4 12,9 9 5 N 1012,7 20 0
20.05.2018 16:00:00 22,6 13,1 11 6 ONO 1013,1 20 0
20.05.2018 15:00:00 24,2 14,3 9 5 NO 1013,3 20 12
20.05.2018 14:00:00 22,6 12,8 8 4 NW 1013,6 20 12
20.05.2018 13:00:00 21,4 15,0 11 6 WNW 1013,7 20 30
20.05.2018 12:00:00 22,6 14,4 9 5 N 1013,6 20 48
20.05.2018 11:00:00 20,4 12,4 9 5 NO 1013,8 20 0
20.05.2018 10:00:00 19,0 12,7 9 5 NNO 1013,9 20 12
20.05.2018 09:00:00 18,8 12,3 9 5 NO 1013,9 12 30
20.05.2018 08:00:00 16,8 13,5 5 3 NNO 1014,1 12 30
20.05.2018 07:00:00 16,0 14,4 5 3 ONO 1014,1 20 0
20.05.2018 06:00:00 16,0 14,7 0 0 N 1014,1 20 -
20.05.2018 05:00:00 16,0 15,2 8 4 OZO 1014,9 20 -
20.05.2018 04:00:00 16,0 15,2 4 2 OZO 1015,1 20 -
20.05.2018 03:00:00 16,4 15,4 8 4 ZO 1015,0 20 -
20.05.2018 02:00:00 17,6 15,2 16 9 O 1015,0 20 -
20.05.2018 01:00:00 17,0 15,0 21 11 NNO 1015,0 20 -
20.05.2018 00:00:00 17,2 13,3 22 12 NO 1015,0 20 -
19.05.2018 23:00:00 17,4 13,9 18 10 NO 1015,0 20 -
19.05.2018 22:00:00 18,0 15,6 16 9 NNO 1014,5 20 -
19.05.2018 21:00:00 18,0 14,1 18 10 NNO 1014,2 20 0
19.05.2018 20:00:00 20,0 14,4 13 7 N 1013,8 20 48
19.05.2018 19:00:00 19,6 13,5 13 7 N 1013,9 15 42
19.05.2018 18:00:00 21,0 13,9 16 9 NNW 1014,4 20 60
19.05.2018 17:00:00 21,2 14,1 9 5 N 1014,5 20 60
19.05.2018 16:00:00 22,0 14,4 13 7 N 1014,5 20 60
19.05.2018 15:00:00 20,2 15,2 11 6 NNW 1014,9 15 60
19.05.2018 14:00:00 19,8 16,3 8 4 NNW 1015,5 20 60
19.05.2018 13:00:00 18,8 16,8 8 4 NNW 1015,8 20 60
19.05.2018 12:00:00 18,8 16,4 11 6 WNW 1015,8 20 60
19.05.2018 11:00:00 17,8 16,3 9 5 NW 1015,9 12 60
19.05.2018 10:00:00 17,2 15,9 8 4 WNW 1015,9 20 60
19.05.2018 09:00:00 19,2 13,6 4 2 N 1015,3 20 60
19.05.2018 08:00:00 18,0 14,3 5 3 NO 1015,2 20 60
19.05.2018 07:00:00 16,0 12,5 4 2 NNW 1015,0 20 -
19.05.2018 06:00:00 15,0 13,9 26 14 ONO 1015,1 20 -
19.05.2018 05:00:00 15,0 13,9 9 5 NO 1015,1 20 -
19.05.2018 04:00:00 15,4 14,3 9 5 NNO 1015,4 20 -
19.05.2018 03:00:00 16,0 15,0 11 6 NO 1015,9 20 -
19.05.2018 02:00:00 16,0 14,4 11 6 NNO 1016,1 20 -
19.05.2018 01:00:00 16,0 15,5 15 8 NNO 1016,1 20 -
19.05.2018 00:00:00 16,4 16,1 21 11 NNO 1016,0 20 -
18.05.2018 23:00:00 16,4 15,9 18 10 NO 1015,6 20 -
18.05.2018 22:00:00 16,6 15,0 21 11 NO 1015,1 20 -
18.05.2018 21:00:00 16,8 13,5 16 9 NNO 1015,1 20 -
18.05.2018 20:00:00 17,8 13,7 16 9 NNO 1015,0 20 18
18.05.2018 19:00:00 18,0 15,8 5 3 WZW 1015,0 20 60
18.05.2018 18:00:00 18,0 15,2 13 7 WNW 1015,0 20 60
18.05.2018 17:00:00 18,6 14,7 15 8 WNW 1015,1 20 60
18.05.2018 16:00:00 18,8 13,7 13 7 W 1015,6 20 60
18.05.2018 15:00:00 19,4 14,2 15 8 WNW 1015,6 20 60
18.05.2018 14:00:00 18,4 13,7 16 9 WNW 1015,9 20 60
18.05.2018 13:00:00 18,6 14,7 11 6 NNW 1015,8 20 60
18.05.2018 12:00:00 19,0 14,1 5 3 W 1015,6 20 60
18.05.2018 11:00:00 18,0 15,1 5 3 WZW 1015,1 20 60
18.05.2018 10:00:00 19,8 13,0 8 4 NO 1014,9 20 48
18.05.2018 09:00:00 17,8 13,1 11 6 ONO 1014,9 20 60
18.05.2018 08:00:00 16,0 12,7 13 7 ONO 1015,0 20 30
18.05.2018 07:00:00 15,0 14,2 8 4 ONO 1015,0 20 0
18.05.2018 06:00:00 14,4 13,6 8 4 NO 1015,1 20 -
18.05.2018 05:00:00 15,0 14,4 4 2 NO 1014,9 20 -
18.05.2018 04:00:00 15,0 14,2 4 2 O 1015,1 20 -
18.05.2018 03:00:00 15,0 13,7 2 1 ONO 1015,0 20 -
18.05.2018 02:00:00 15,0 14,7 5 3 O 1015,1 20 -
18.05.2018 01:00:00 15,0 14,7 5 3 O 1015,3 20 -
18.05.2018 00:00:00 15,2 14,7 2 1 ONO 1015,3 20 -
17.05.2018 23:00:00 15,0 14,2 8 4 N 1015,1 20 -
17.05.2018 22:00:00 15,4 14,9 8 4 N 1015,1 20 -
17.05.2018 21:00:00 16,0 14,5 4 2 NW 1015,0 20 0
17.05.2018 20:00:00 16,8 15,2 5 3 WNW 1014,2 20 0
17.05.2018 19:00:00 17,8 16,0 9 5 WNW 1014,1 20 30
17.05.2018 18:00:00 18,0 15,6 5 3 NNW 1014,1 20 60
17.05.2018 17:00:00 17,4 14,9 8 4 ZW 1014,5 20 60
17.05.2018 16:00:00 19,0 14,9 4 2 WZW 1014,6 20 60
17.05.2018 15:00:00 18,6 14,1 5 3 ZW 1014,8 20 60
17.05.2018 14:00:00 18,0 15,4 9 5 Z 1014,9 20 60
17.05.2018 13:00:00 17,4 14,9 9 5 Z 1014,9 20 60
17.05.2018 12:00:00 17,0 15,4 9 5 Z 1015,0 20 60
17.05.2018 11:00:00 16,0 13,3 11 6 Z 1015,0 20 48
17.05.2018 10:00:00 16,6 14,1 9 5 ZZO 1015,0 20 60
17.05.2018 09:00:00 16,0 13,8 0 0 N 1015,1 20 60
17.05.2018 08:00:00 15,0 13,7 0 0 N 1015,1 20 12
17.05.2018 07:00:00 14,0 13,0 5 3 NW 1015,2 20 -
17.05.2018 06:00:00 14,2 13,7 4 2 W 1015,2 20 -
17.05.2018 05:00:00 14,4 13,9 0 0 N 1015,2 15 -
17.05.2018 04:00:00 14,4 13,9 5 3 WNW 1015,2 15 -
17.05.2018 03:00:00 14,6 14,0 9 5 WZW 1015,3 15 -
17.05.2018 02:00:00 14,6 14,0 4 2 OZO 1015,4 15 -
17.05.2018 01:00:00 14,6 14,0 2 1 W 1015,4 15 -
17.05.2018 00:00:00 14,6 13,8 4 2 WZW 1015,4 15 -
16.05.2018 23:00:00 14,6 13,7 5 3 WZW 1015,3 10 -
16.05.2018 22:00:00 14,4 12,8 8 4 WZW 1015,3 15 -
16.05.2018 21:00:00 14,6 13,2 8 4 WZW 1015,2 15 -
16.05.2018 20:00:00 14,6 14,1 8 4 N 1014,8 15 0
16.05.2018 19:00:00 15,0 13,5 9 5 NW 1014,8 15 0
16.05.2018 18:00:00 14,8 14,0 11 6 ONO 1015,1 15 0
16.05.2018 17:00:00 15,4 13,6 11 6 ZZO 1015,2 10 0
16.05.2018 16:00:00 16,4 13,7 13 7 W 1015,5 15 24
16.05.2018 15:00:00 16,0 14,5 13 7 N 1015,9 12 0
16.05.2018 14:00:00 16,2 14,2 21 11 NNW 1015,9 12 12
16.05.2018 13:00:00 17,0 13,9 16 9 NNW 1015,9 12 24
16.05.2018 12:00:00 17,2 13,9 16 9 NNW 1015,8 12 60
16.05.2018 11:00:00 17,4 14,7 8 4 ZZW 1015,2 15 60
16.05.2018 10:00:00 16,4 14,6 5 3 NNO 1015,0 15 24
16.05.2018 09:00:00 15,4 14,4 8 4 NNO 1015,1 12 0
16.05.2018 08:00:00 15,0 14,2 9 5 NO 1014,6 10 0
16.05.2018 07:00:00 14,8 14,0 9 5 O 1014,6 10 -
16.05.2018 06:00:00 14,8 14,0 16 9 W 1014,6 10 -
16.05.2018 05:00:00 14,8 14,0 18 10 ONO 1014,6 12 -
16.05.2018 04:00:00 14,8 14,0 21 11 ZZW 1014,7 12 -
16.05.2018 03:00:00 14,6 13,0 24 13 WZW 1015,0 12 -
16.05.2018 02:00:00 14,8 12,8 13 7 O 1015,1 12 -
16.05.2018 01:00:00 14,6 12,5 13 7 W 1015,3 12 -
16.05.2018 00:00:00 14,6 12,1 13 7 N 1015,2 12 -
15.05.2018 23:00:00 14,4 12,3 15 8 NNO 1015,2 12 -
15.05.2018 22:00:00 13,8 13,0 28 15 WNW 1015,2 12 -
15.05.2018 21:00:00 14,0 11,4 28 15 NO 1014,4 12 -
15.05.2018 20:00:00 13,8 11,0 34 18 W 1014,2 15 0
15.05.2018 19:00:00 13,2 12,9 28 15 WNW 1014,3 15 0

tt = temperatuur
td = dauwpunt
ff = windsnelheid
dd = windrichting
ppp = luchtdruk
vv = zicht
sd = Zonneschijnduur

Weerstations in de omgeving